| time (UTC) | temp F | wind direction | speed MPH | gust MPH | rain 1hr in | rain 24hr in | rain mn in | humidity % | barometer mb |
| 20260831081803 | 55 | 266 | 7.0 | 11.0 | 0.00 | 0.00 | 0.00 | 96 | 1011.2 |
| 20260831081203 | 55 | 268 | 7.0 | 10.0 | 0.00 | 0.00 | 0.00 | 96 | 1011.3 |
| 20260831080604 | 55 | 267 | 6.0 | 12.0 | 0.00 | 0.00 | 0.00 | 96 | 1011.3 |
| 20260831080004 | 55 | 266 | 7.0 | 12.0 | 0.00 | 0.00 | 0.00 | 96 | 1011.4 |
| 20260831075404 | 55 | 269 | 6.0 | 11.0 | 0.00 | 0.00 | 0.00 | 96 | 1011.4 |
| 20260831074804 | 55 | 266 | 5.0 | 8.0 | 0.00 | 0.00 | 0.00 | 96 | 1011.4 |
| 20260831074203 | 54 | 268 | 6.0 | 11.0 | 0.00 | 0.00 | 0.00 | 96 | 1011.3 |
| 20260831073604 | 54 | 267 | 7.0 | 12.0 | 0.00 | 0.00 | 0.00 | 96 | 1011.3 |
| 20260831073003 | 54 | 262 | 8.0 | 12.0 | 0.00 | 0.00 | 0.00 | 96 | 1011.3 |
| 20260831072403 | 54 | 261 | 8.0 | 12.0 | 0.00 | 0.00 | 0.00 | 96 | 1011.3 |
| 20260831071803 | 54 | 261 | 9.0 | 13.0 | 0.00 | 0.00 | 0.00 | 96 | 1011.2 |
| 20260831071204 | 54 | 262 | 9.0 | 14.0 | 0.00 | 0.00 | 0.00 | 96 | 1011.3 |
| 20260831070603 | 54 | 261 | 9.0 | 14.0 | 0.00 | 0.00 | 0.00 | 96 | 1011.3 |
| 20260831070003 | 54 | 261 | 9.0 | 14.0 | 0.00 | 0.00 | 0.00 | 96 | 1011.3 |
| 20260831065403 | 54 | 261 | 9.0 | 13.0 | 0.00 | 0.00 | 0.00 | 96 | 1011.3 |
| 20260831064803 | 54 | 261 | 8.0 | 13.0 | 0.00 | 0.00 | 0.00 | 96 | 1011.3 |
| 20260831064203 | 54 | 262 | 9.0 | 14.0 | 0.00 | 0.00 | 0.00 | 96 | 1011.3 |
| 20260831063603 | 54 | 261 | 8.0 | 14.0 | 0.00 | 0.00 | 0.00 | 97 | 1011.3 |
| 20260831063003 | 54 | 262 | 7.0 | 11.0 | 0.00 | 0.00 | 0.00 | 96 | 1011.3 |
| 20260831062403 | 54 | 263 | 8.0 | 14.0 | 0.00 | 0.00 | 0.00 | 96 | 1011.3 |
| 20260831061803 | 54 | 261 | 9.0 | 14.0 | 0.00 | 0.00 | 0.00 | 97 | 1011.3 |
| 20260831061203 | 54 | 262 | 8.0 | 13.0 | 0.00 | 0.00 | 0.00 | 96 | 1011.3 |
| 20260831060603 | 54 | 262 | 8.0 | 14.0 | 0.00 | 0.00 | 0.00 | 96 | 1011.3 |
| 20260831060003 | 55 | 261 | 9.0 | 15.0 | 0.00 | 0.00 | 0.00 | 96 | 1011.3 |
| 20260831055403 | 55 | 259 | 9.0 | 15.0 | 0.00 | 0.00 | 0.00 | 96 | 1011.3 |
| 20260831054804 | 55 | 261 | 8.0 | 13.0 | 0.00 | 0.00 | 0.00 | 96 | 1011.2 |
| 20260831054204 | 55 | 264 | 7.0 | 13.0 | 0.00 | 0.00 | 0.00 | 96 | 1011.2 |
| 20260831053604 | 55 | 261 | 7.0 | 12.0 | 0.00 | 0.00 | 0.00 | 96 | 1011.3 |
| 20260831053004 | 55 | 263 | 8.0 | 13.0 | 0.00 | 0.00 | 0.00 | 96 | 1011.3 |
| 20260831052403 | 55 | 262 | 9.0 | 13.0 | 0.00 | 0.00 | 0.00 | 96 | 1011.2 |
| 20260831051804 | 55 | 261 | 9.0 | 14.0 | 0.00 | 0.00 | 0.00 | 96 | 1011.2 |
| 20260831051203 | 55 | 260 | 8.0 | 13.0 | 0.00 | 0.00 | 0.00 | 96 | 1011.2 |
| 20260831050603 | 55 | 261 | 8.0 | 14.0 | 0.00 | 0.00 | 0.00 | 96 | 1011.3 |
| 20260831050003 | 55 | 261 | 9.0 | 14.0 | 0.00 | 0.00 | 0.00 | 96 | 1011.4 |
| 20260831045403 | 55 | 263 | 10.0 | 15.0 | 0.00 | 0.00 | 0.00 | 96 | 1011.4 |
| 20260831044803 | 55 | 260 | 10.0 | 15.0 | 0.00 | 0.00 | 0.00 | 96 | 1011.4 |
| 20260831044203 | 55 | 259 | 9.0 | 15.0 | 0.00 | 0.00 | 0.00 | 96 | 1011.4 |
| 20260831043603 | 55 | 260 | 9.0 | 14.0 | 0.00 | 0.00 | 0.00 | 95 | 1011.4 |
| 20260831043003 | 55 | 259 | 9.0 | 14.0 | 0.00 | 0.00 | 0.00 | 95 | 1011.4 |
| 20260831042403 | 55 | 259 | 9.0 | 15.0 | 0.00 | 0.00 | 0.00 | 95 | 1011.4 |
| 20260831041803 | 55 | 260 | 9.0 | 15.0 | 0.00 | 0.00 | 0.00 | 95 | 1011.4 |
| 20260831041203 | 55 | 258 | 9.0 | 14.0 | 0.00 | 0.00 | 0.00 | 95 | 1011.4 |
| 20260831040603 | 55 | 256 | 8.0 | 13.0 | 0.00 | 0.00 | 0.00 | 95 | 1011.3 |
| 20260831040003 | 55 | 259 | 8.0 | 13.0 | 0.00 | 0.00 | 0.00 | 95 | 1011.3 |
| 20260831035403 | 55 | 257 | 9.0 | 14.0 | 0.00 | 0.00 | 0.00 | 95 | 1011.3 |
| 20260831034803 | 55 | 260 | 9.0 | 15.0 | 0.00 | 0.00 | 0.00 | 95 | 1011.2 |
| 20260831034204 | 56 | 262 | 9.0 | 13.0 | 0.00 | 0.00 | 0.00 | 95 | 1011.3 |
| 20260831033604 | 56 | 262 | 8.0 | 13.0 | 0.00 | 0.00 | 0.00 | 95 | 1011.2 |
| 20260831033004 | 56 | 261 | 7.0 | 12.0 | 0.00 | 0.00 | 0.00 | 95 | 1011.2 |
| 20260831032404 | 56 | 260 | 7.0 | 12.0 | 0.00 | 0.00 | 0.00 | 95 | 1011.1 |
| 20260831031803 | 56 | 259 | 7.0 | 11.0 | 0.00 | 0.00 | 0.00 | 95 | 1011.1 |
| 20260831031203 | 56 | 260 | 7.0 | 11.0 | 0.00 | 0.00 | 0.00 | 95 | 1011.0 |
| 20260831030603 | 56 | 260 | 7.0 | 10.0 | 0.00 | 0.00 | 0.00 | 95 | 1010.9 |
| 20260831030004 | 56 | 260 | 6.0 | 11.0 | 0.00 | 0.00 | 0.00 | 95 | 1010.9 |
| 20260831025403 | 55 | 261 | 6.0 | 11.0 | 0.00 | 0.00 | 0.00 | 95 | 1010.9 |
| 20260831024803 | 55 | 262 | 7.0 | 10.0 | 0.00 | 0.00 | 0.00 | 95 | 1010.8 |
| 20260831024203 | 55 | 260 | 7.0 | 11.0 | 0.00 | 0.00 | 0.00 | 95 | 1010.8 |
| 20260831023603 | 55 | 261 | 8.0 | 15.0 | 0.00 | 0.00 | 0.00 | 95 | 1010.8 |
| 20260831023003 | 55 | 260 | 9.0 | 15.0 | 0.00 | 0.00 | 0.00 | 94 | 1010.8 |
| 20260831022403 | 55 | 259 | 8.0 | 13.0 | 0.00 | 0.00 | 0.00 | 94 | 1010.8 |
| 20260831021803 | 56 | 260 | 8.0 | 12.0 | 0.00 | 0.00 | 0.00 | 93 | 1010.9 |
| 20260831021203 | 56 | 261 | 9.0 | 15.0 | 0.00 | 0.00 | 0.00 | 93 | 1010.9 |
| 20260831020603 | 56 | 261 | 9.0 | 17.0 | 0.00 | 0.00 | 0.00 | 93 | 1010.9 |
| 20260831020003 | 56 | 260 | 11.0 | 17.0 | 0.00 | 0.00 | 0.00 | 92 | 1010.8 |
| 20260831015403 | 56 | 258 | 12.0 | 19.0 | 0.00 | 0.00 | 0.00 | 91 | 1010.9 |
| 20260831014803 | 57 | 260 | 11.0 | 19.0 | 0.00 | 0.00 | 0.00 | 90 | 1010.8 |
| 20260831014203 | 58 | 260 | 10.0 | 16.0 | 0.00 | 0.00 | 0.00 | 88 | 1010.8 |
| 20260831013603 | 59 | 260 | 9.0 | 16.0 | 0.00 | 0.00 | 0.00 | 87 | 1010.8 |
| 20260831013003 | 60 | 264 | 8.0 | 12.0 | 0.00 | 0.00 | 0.00 | 86 | 1010.8 |
| 20260831012404 | 60 | 261 | 8.0 | 12.0 | 0.00 | 0.00 | 0.00 | 84 | 1011.0 |
| 20260831011804 | 60 | 259 | 8.0 | 13.0 | 0.00 | 0.00 | 0.00 | 84 | 1011.0 |
| 20260831011204 | 60 | 259 | 9.0 | 13.0 | 0.00 | 0.00 | 0.00 | 84 | 1010.9 |
| 20260831010604 | 61 | 258 | 9.0 | 13.0 | 0.00 | 0.00 | 0.00 | 84 | 1011.0 |
| 20260831010004 | 61 | 256 | 9.0 | 14.0 | 0.00 | 0.00 | 0.00 | 83 | 1011.0 |
| 20260831005403 | 61 | 261 | 9.0 | 15.0 | 0.00 | 0.00 | 0.00 | 84 | 1011.1 |
| 20260831004804 | 61 | 262 | 9.0 | 15.0 | 0.00 | 0.00 | 0.00 | 84 | 1011.1 |
| 20260831004204 | 61 | 259 | 9.0 | 13.0 | 0.00 | 0.00 | 0.00 | 84 | 1011.1 |
| 20260831003603 | 61 | 258 | 9.0 | 14.0 | 0.00 | 0.00 | 0.00 | 84 | 1011.1 |
| 20260831003003 | 61 | 259 | 9.0 | 14.0 | 0.00 | 0.00 | 0.00 | 83 | 1011.1 |
| 20260831002403 | 61 | 261 | 9.0 | 14.0 | 0.00 | 0.00 | 0.00 | 83 | 1011.2 |
| 20260831001803 | 61 | 263 | 10.0 | 17.0 | 0.00 | 0.00 | 0.00 | 83 | 1011.2 |
| 20260831001203 | 61 | 266 | 10.0 | 17.0 | 0.00 | 0.00 | 0.00 | 83 | 1011.3 |
| 20260831000603 | 62 | 261 | 10.0 | 15.0 | 0.00 | 0.00 | 0.00 | 82 | 1011.2 |
| 20260831000003 | 61 | 261 | 10.0 | 16.0 | 0.00 | 0.00 | 0.00 | 83 | 1011.2 |
| 20260830235403 | 61 | 263 | 11.0 | 16.0 | 0.00 | 0.00 | 0.00 | 82 | 1011.3 |
| 20260830234803 | 61 | 262 | 10.0 | 16.0 | 0.00 | 0.00 | 0.00 | 83 | 1011.3 |
| 20260830234203 | 61 | 261 | 11.0 | 16.0 | 0.00 | 0.00 | 0.00 | 83 | 1011.3 |
| 20260830233603 | 62 | 258 | 10.0 | 16.0 | 0.00 | 0.00 | 0.00 | 82 | 1011.4 |
| 20260830233003 | 61 | 260 | 10.0 | 16.0 | 0.00 | 0.00 | 0.00 | 83 | 1011.4 |
| 20260830232403 | 62 | 262 | 10.0 | 16.0 | 0.00 | 0.00 | 0.00 | 82 | 1011.5 |
| 20260830231803 | 62 | 262 | 10.0 | 16.0 | 0.00 | 0.00 | 0.00 | 83 | 1011.5 |
| 20260830231204 | 62 | 265 | 10.0 | 14.0 | 0.00 | 0.00 | 0.00 | 83 | 1011.5 |
| 20260830230604 | 62 | 265 | 9.0 | 15.0 | 0.00 | 0.00 | 0.00 | 82 | 1011.6 |
| 20260830230004 | 61 | 266 | 10.0 | 15.0 | 0.00 | 0.00 | 0.00 | 83 | 1011.6 |
| 20260830225404 | 62 | 267 | 10.0 | 15.0 | 0.00 | 0.00 | 0.00 | 80 | 1011.6 |
| 20260830224803 | 62 | 268 | 9.0 | 14.0 | 0.00 | 0.00 | 0.00 | 81 | 1011.7 |
| 20260830224203 | 63 | 269 | 9.0 | 14.0 | 0.00 | 0.00 | 0.00 | 81 | 1011.7 |
| 20260830223603 | 63 | 268 | 9.0 | 14.0 | 0.00 | 0.00 | 0.00 | 80 | 1011.7 |
| 20260830223003 | 63 | 270 | 9.0 | 15.0 | 0.00 | 0.00 | 0.00 | 80 | 1011.9 |
| 20260830222403 | 63 | 268 | 8.0 | 13.0 | 0.00 | 0.00 | 0.00 | 80 | 1011.9 |
| 20260830221803 | 63 | 268 | 8.0 | 14.0 | 0.00 | 0.00 | 0.00 | 79 | 1012.0 |
| 20260830221203 | 63 | 267 | 9.0 | 13.0 | 0.00 | 0.00 | 0.00 | 80 | 1012.1 |
| 20260830220603 | 63 | 268 | 9.0 | 14.0 | 0.00 | 0.00 | 0.00 | 80 | 1012.2 |
| 20260830220003 | 64 | 267 | 9.0 | 13.0 | 0.00 | 0.00 | 0.00 | 79 | 1012.3 |
| 20260830215403 | 63 | 265 | 9.0 | 15.0 | 0.00 | 0.00 | 0.00 | 80 | 1012.4 |
| 20260830214803 | 63 | 266 | 9.0 | 15.0 | 0.00 | 0.00 | 0.00 | 80 | 1012.5 |
| 20260830214203 | 63 | 264 | 8.0 | 14.0 | 0.00 | 0.00 | 0.00 | 79 | 1012.6 |
| 20260830213603 | 63 | 264 | 8.0 | 15.0 | 0.00 | 0.00 | 0.00 | 80 | 1012.6 |
| 20260830213003 | 63 | 266 | 8.0 | 14.0 | 0.00 | 0.00 | 0.00 | 80 | 1012.7 |
| 20260830212403 | 63 | 267 | 9.0 | 14.0 | 0.00 | 0.00 | 0.00 | 80 | 1012.8 |
| 20260830211803 | 63 | 265 | 9.0 | 13.0 | 0.00 | 0.00 | 0.00 | 80 | 1012.8 |
| 20260830211203 | 63 | 265 | 8.0 | 12.0 | 0.00 | 0.00 | 0.00 | 81 | 1012.9 |
| 20260830210603 | 63 | 263 | 8.0 | 12.0 | 0.00 | 0.00 | 0.00 | 81 | 1012.9 |
| 20260830210004 | 63 | 266 | 8.0 | 13.0 | 0.00 | 0.00 | 0.00 | 81 | 1013.0 |
| 20260830205404 | 63 | 267 | 9.0 | 14.0 | 0.00 | 0.00 | 0.00 | 81 | 1013.1 |
| 20260830204804 | 62 | 266 | 9.0 | 14.0 | 0.00 | 0.00 | 0.00 | 82 | 1013.1 |
| 20260830204204 | 62 | 266 | 9.0 | 15.0 | 0.00 | 0.00 | 0.00 | 82 | 1013.2 |
| 20260830203603 | 62 | 266 | 9.0 | 15.0 | 0.00 | 0.00 | 0.00 | 82 | 1013.2 |
| 20260830203003 | 62 | 267 | 8.0 | 12.0 | 0.00 | 0.00 | 0.00 | 82 | 1013.2 |
| 20260830202404 | 62 | 267 | 8.0 | 11.0 | 0.00 | 0.00 | 0.00 | 82 | 1013.3 |
| 20260830201803 | 62 | 265 | 8.0 | 11.0 | 0.00 | 0.00 | 0.00 | 83 | 1013.3 |
| 20260830201203 | 62 | 263 | 8.0 | 12.0 | 0.00 | 0.00 | 0.00 | 84 | 1013.4 |
| 20260830200003 | 62 | 268 | 8.0 | 13.0 | 0.00 | 0.00 | 0.00 | 84 | 1013.4 |
| 20260830195403 | 62 | 267 | 7.0 | 13.0 | 0.00 | 0.00 | 0.00 | 85 | 1013.5 |
| 20260830194803 | 61 | 268 | 7.0 | 14.0 | 0.00 | 0.00 | 0.00 | 86 | 1013.5 |
| 20260830194203 | 60 | 270 | 8.0 | 14.0 | 0.00 | 0.00 | 0.00 | 85 | 1013.6 |
| 20260830193603 | 60 | 271 | 8.0 | 15.0 | 0.00 | 0.00 | 0.00 | 86 | 1013.5 |
| 20260830193003 | 60 | 271 | 8.0 | 15.0 | 0.00 | 0.00 | 0.00 | 86 | 1013.6 |
| 20260830192403 | 60 | 272 | 8.0 | 13.0 | 0.00 | 0.00 | 0.00 | 86 | 1013.6 |
| 20260830191803 | 60 | 270 | 7.0 | 11.0 | 0.00 | 0.00 | 0.00 | 86 | 1013.6 |
| 20260830191203 | 60 | 267 | 6.0 | 13.0 | 0.00 | 0.00 | 0.00 | 88 | 1013.6 |
| 20260830190603 | 60 | 268 | 7.0 | 14.0 | 0.00 | 0.00 | 0.00 | 88 | 1013.7 |
| 20260830190003 | 60 | 271 | 7.0 | 12.0 | 0.00 | 0.00 | 0.00 | 88 | 1013.7 |
| 20260830185403 | 60 | 269 | 8.0 | 14.0 | 0.00 | 0.00 | 0.00 | 88 | 1013.7 |
| 20260830184804 | 59 | 267 | 8.0 | 14.0 | 0.00 | 0.00 | 0.00 | 89 | 1013.8 |
| 20260830184204 | 58 | 270 | 9.0 | 15.0 | 0.00 | 0.00 | 0.00 | 90 | 1013.7 |
| 20260830183604 | 58 | 272 | 9.0 | 15.0 | 0.00 | 0.00 | 0.00 | 90 | 1013.7 |
| 20260830183004 | 58 | 271 | 7.0 | 14.0 | 0.00 | 0.00 | 0.00 | 90 | 1013.7 |
| 20260830182403 | 59 | 269 | 7.0 | 13.0 | 0.00 | 0.00 | 0.00 | 91 | 1013.7 |
| 20260830181803 | 58 | 269 | 6.0 | 12.0 | 0.00 | 0.00 | 0.00 | 91 | 1013.7 |
| 20260830181203 | 58 | 269 | 7.0 | 13.0 | 0.00 | 0.00 | 0.00 | 92 | 1013.7 |
| 20260830180603 | 57 | 270 | 7.0 | 13.0 | 0.00 | 0.00 | 0.00 | 92 | 1013.7 |
| 20260830180003 | 57 | 271 | 7.0 | 13.0 | 0.00 | 0.00 | 0.00 | 92 | 1013.7 |
| 20260830175403 | 57 | 272 | 8.0 | 12.0 | 0.00 | 0.00 | 0.00 | 93 | 1013.7 |
| 20260830174803 | 56 | 273 | 8.0 | 13.0 | 0.00 | 0.00 | 0.00 | 93 | 1013.7 |
| 20260830174203 | 56 | 271 | 8.0 | 13.0 | 0.00 | 0.00 | 0.00 | 94 | 1013.8 |
| 20260830173603 | 56 | 270 | 7.0 | 13.0 | 0.00 | 0.00 | 0.00 | 94 | 1013.8 |
| 20260830173003 | 56 | 271 | 6.0 | 12.0 | 0.00 | 0.00 | 0.00 | 95 | 1013.8 |
| 20260830172403 | 56 | 270 | 6.0 | 12.0 | 0.00 | 0.00 | 0.00 | 95 | 1013.8 |
| 20260830171803 | 56 | 268 | 7.0 | 12.0 | 0.00 | 0.00 | 0.00 | 95 | 1013.8 |
| 20260830171203 | 55 | 270 | 7.0 | 12.0 | 0.00 | 0.00 | 0.00 | 96 | 1013.7 |
| 20260830170603 | 55 | 270 | 8.0 | 14.0 | 0.00 | 0.00 | 0.00 | 95 | 1013.7 |
| 20260830170003 | 55 | 269 | 8.0 | 14.0 | 0.00 | 0.00 | 0.00 | 95 | 1013.6 |
| 20260830165403 | 55 | 270 | 8.0 | 13.0 | 0.00 | 0.00 | 0.00 | 95 | 1013.7 |
| 20260830164803 | 55 | 271 | 8.0 | 12.0 | 0.00 | 0.00 | 0.00 | 96 | 1013.6 |
| 20260830164203 | 55 | 273 | 8.0 | 13.0 | 0.00 | 0.00 | 0.00 | 96 | 1013.6 |
| 20260830163604 | 55 | 271 | 8.0 | 13.0 | 0.00 | 0.00 | 0.00 | 96 | 1013.6 |
| 20260830163004 | 55 | 270 | 8.0 | 13.0 | 0.00 | 0.00 | 0.00 | 96 | 1013.6 |
| 20260830162404 | 55 | 270 | 8.0 | 13.0 | 0.00 | 0.00 | 0.00 | 96 | 1013.5 |
| 20260830161804 | 55 | 271 | 8.0 | 13.0 | 0.00 | 0.00 | 0.00 | 96 | 1013.3 |
| 20260830161203 | 55 | 271 | 8.0 | 13.0 | 0.00 | 0.00 | 0.00 | 96 | 1013.3 |
| 20260830160004 | 54 | 270 | 8.0 | 13.0 | 0.00 | 0.00 | 0.00 | 97 | 1013.3 |
| 20260830155403 | 54 | 270 | 8.0 | 13.0 | 0.00 | 0.00 | 0.00 | 97 | 1013.3 |
| 20260830154803 | 54 | 269 | 7.0 | 13.0 | 0.00 | 0.00 | 0.00 | 97 | 1013.3 |
| 20260830154203 | 54 | 269 | 7.0 | 11.0 | 0.00 | 0.00 | 0.00 | 97 | 1013.3 |
| 20260830153603 | 54 | 268 | 7.0 | 12.0 | 0.00 | 0.00 | 0.00 | 97 | 1013.4 |
| 20260830153003 | 54 | 269 | 6.0 | 10.0 | 0.00 | 0.00 | 0.00 | 97 | 1013.4 |
| 20260830152403 | 54 | 270 | 7.0 | 11.0 | 0.00 | 0.00 | 0.00 | 97 | 1013.4 |
| 20260830151803 | 54 | 269 | 6.0 | 9.0 | 0.00 | 0.00 | 0.00 | 97 | 1013.4 |
| 20260830151203 | 54 | 270 | 7.0 | 12.0 | 0.00 | 0.00 | 0.00 | 97 | 1013.3 |
| 20260830150603 | 54 | 271 | 7.0 | 12.0 | 0.00 | 0.00 | 0.00 | 97 | 1013.3 |
| 20260830150003 | 53 | 270 | 6.0 | 10.0 | 0.00 | 0.00 | 0.00 | 97 | 1013.2 |
| 20260830145403 | 54 | 268 | 6.0 | 11.0 | 0.00 | 0.00 | 0.00 | 97 | 1013.2 |
| 20260830144803 | 53 | 271 | 7.0 | 12.0 | 0.00 | 0.00 | 0.00 | 97 | 1013.2 |
| 20260830144203 | 53 | 272 | 7.0 | 12.0 | 0.00 | 0.00 | 0.00 | 97 | 1013.1 |
| 20260830143603 | 53 | 272 | 7.0 | 11.0 | 0.00 | 0.00 | 0.00 | 97 | 1013.1 |
| 20260830143003 | 53 | 272 | 7.0 | 11.0 | 0.00 | 0.00 | 0.00 | 97 | 1013.1 |
| 20260830142404 | 53 | 273 | 6.0 | 11.0 | 0.00 | 0.00 | 0.00 | 97 | 1013.0 |
| 20260830141804 | 53 | 272 | 6.0 | 11.0 | 0.00 | 0.00 | 0.00 | 97 | 1012.8 |
| 20260830141204 | 53 | 271 | 7.0 | 11.0 | 0.00 | 0.00 | 0.00 | 97 | 1012.8 |
| 20260830140604 | 53 | 272 | 7.0 | 11.0 | 0.00 | 0.00 | 0.00 | 97 | 1012.8 |
| 20260830140004 | 53 | 271 | 6.0 | 11.0 | 0.00 | 0.00 | 0.00 | 97 | 1012.7 |
| 20260830135404 | 53 | 271 | 6.0 | 11.0 | 0.00 | 0.00 | 0.00 | 97 | 1012.6 |
| 20260830134803 | 53 | 269 | 6.0 | 10.0 | 0.00 | 0.00 | 0.00 | 97 | 1012.5 |
| 20260830134203 | 53 | 269 | 7.0 | 12.0 | 0.00 | 0.00 | 0.00 | 97 | 1012.4 |
| 20260830133603 | 53 | 270 | 7.0 | 11.0 | 0.00 | 0.00 | 0.00 | 96 | 1012.4 |
| 20260830133004 | 53 | 272 | 7.0 | 11.0 | 0.00 | 0.00 | 0.00 | 96 | 1012.4 |
| 20260830132403 | 53 | 270 | 6.0 | 9.0 | 0.00 | 0.00 | 0.00 | 96 | 1012.3 |
| 20260830131803 | 53 | 271 | 5.0 | 9.0 | 0.00 | 0.00 | 0.00 | 96 | 1012.3 |
| 20260830131203 | 53 | 273 | 5.0 | 9.0 | 0.00 | 0.00 | 0.00 | 96 | 1012.3 |
| 20260830130603 | 53 | 273 | 5.0 | 9.0 | 0.00 | 0.00 | 0.00 | 96 | 1012.3 |
| 20260830130003 | 53 | 275 | 4.0 | 8.0 | 0.00 | 0.00 | 0.00 | 96 | 1012.2 |
| 20260830125403 | 53 | 272 | 3.0 | 7.0 | 0.00 | 0.00 | 0.00 | 96 | 1012.1 |
| 20260830124803 | 53 | 268 | 2.0 | 7.0 | 0.00 | 0.00 | 0.00 | 96 | 1012.1 |
| 20260830124203 | 52 | 266 | 2.0 | 3.0 | 0.00 | 0.00 | 0.00 | 95 | 1012.0 |
| 20260830123603 | 52 | 266 | 2.0 | 3.0 | 0.00 | 0.00 | 0.00 | 95 | 1012.0 |
| 20260830123003 | 53 | 266 | 1.0 | 3.0 | 0.00 | 0.00 | 0.00 | 95 | 1011.9 |
| 20260830122403 | 53 | 266 | 0.0 | 2.0 | 0.00 | 0.00 | 0.00 | 95 | 1011.9 |
| 20260830121803 | 53 | 266 | 1.0 | 2.0 | 0.00 | 0.00 | 0.00 | 95 | 1011.9 |
| 20260830121203 | 53 | 266 | 1.0 | 2.0 | 0.00 | 0.00 | 0.00 | 94 | 1011.9 |
| 20260830120604 | 53 | 266 | 1.0 | 2.0 | 0.00 | 0.00 | 0.00 | 94 | 1011.9 |
| 20260830120004 | 53 | 266 | 0.0 | 2.0 | 0.00 | 0.00 | 0.00 | 94 | 1011.9 |
| 20260830115404 | 53 | 266 | 0.0 | 1.0 | 0.00 | 0.00 | 0.00 | 94 | 1011.9 |
| 20260830114803 | 53 | 0 | 0.0 | 0.0 | 0.00 | 0.00 | 0.00 | 94 | 1012.0 |
| 20260830114204 | 53 | 0 | 0.0 | 0.0 | 0.00 | 0.00 | 0.00 | 94 | 1012.0 |
| 20260830113603 | 53 | 0 | 0.0 | 0.0 | 0.00 | 0.00 | 0.00 | 93 | 1011.9 |
| 20260830113004 | 53 | 0 | 0.0 | 1.0 | 0.00 | 0.00 | 0.00 | 94 | 1011.9 |
| 20260830112404 | 54 | 0 | 0.0 | 1.0 | 0.00 | 0.00 | 0.00 | 94 | 1011.9 |
| 20260830111803 | 54 | 0 | 0.0 | 0.0 | 0.00 | 0.00 | 0.00 | 93 | 1011.9 |
| 20260830111203 | 54 | 0 | 0.0 | 0.0 | 0.00 | 0.00 | 0.00 | 93 | 1011.9 |
| 20260830110603 | 54 | 0 | 0.0 | 0.0 | 0.00 | 0.00 | 0.00 | 93 | 1011.9 |
| 20260830110004 | 54 | 0 | 0.0 | 0.0 | 0.00 | 0.00 | 0.00 | 93 | 1011.9 |
| 20260830105403 | 54 | 0 | 0.0 | 0.0 | 0.00 | 0.00 | 0.00 | 93 | 1011.8 |
| 20260830104803 | 54 | 0 | 0.0 | 0.0 | 0.00 | 0.00 | 0.00 | 93 | 1011.9 |
| 20260830104203 | 54 | 0 | 0.0 | 0.0 | 0.00 | 0.00 | 0.00 | 93 | 1011.9 |
| 20260830103603 | 54 | 266 | 0.0 | 1.0 | 0.00 | 0.00 | 0.00 | 92 | 1011.9 |
| 20260830103003 | 54 | 266 | 0.0 | 1.0 | 0.00 | 0.00 | 0.00 | 92 | 1011.9 |
| 20260830102403 | 55 | 0 | 0.0 | 0.0 | 0.00 | 0.00 | 0.00 | 92 | 1012.0 |
| 20260830101803 | 55 | 0 | 0.0 | 0.0 | 0.00 | 0.00 | 0.00 | 92 | 1012.0 |
| 20260830101203 | 55 | 0 | 0.0 | 0.0 | 0.00 | 0.00 | 0.00 | 92 | 1011.9 |
| 20260830100603 | 55 | 0 | 0.0 | 0.0 | 0.00 | 0.00 | 0.00 | 92 | 1012.0 |
| 20260830100003 | 55 | 0 | 0.0 | 0.0 | 0.00 | 0.00 | 0.00 | 92 | 1012.0 |
| 20260830095403 | 55 | 0 | 0.0 | 0.0 | 0.00 | 0.00 | 0.00 | 92 | 1012.0 |
| 20260830094804 | 55 | 0 | 0.0 | 0.0 | 0.00 | 0.00 | 0.00 | 92 | 1012.0 |
| 20260830094204 | 55 | 0 | 0.0 | 1.0 | 0.00 | 0.00 | 0.00 | 91 | 1012.0 |
| 20260830093604 | 55 | 0 | 0.0 | 1.0 | 0.00 | 0.00 | 0.00 | 91 | 1012.0 |
| 20260830093003 | 55 | 0 | 0.0 | 0.0 | 0.00 | 0.00 | 0.00 | 91 | 1012.0 |
| 20260830092403 | 55 | 0 | 0.0 | 0.0 | 0.00 | 0.00 | 0.00 | 91 | 1012.1 |
| 20260830091804 | 56 | 0 | 0.0 | 0.0 | 0.00 | 0.00 | 0.00 | 90 | 1012.1 |
| 20260830091203 | 56 | 0 | 0.0 | 0.0 | 0.00 | 0.00 | 0.00 | 90 | 1012.1 |
| 20260830090603 | 56 | 266 | 0.0 | 2.0 | 0.00 | 0.00 | 0.00 | 90 | 1012.0 |
| 20260830090004 | 56 | 266 | 0.0 | 2.0 | 0.00 | 0.00 | 0.00 | 90 | 1012.1 |
| 20260830085403 | 56 | 0 | 0.0 | 0.0 | 0.00 | 0.00 | 0.00 | 91 | 1012.0 |
| 20260830084803 | 56 | 0 | 0.0 | 0.0 | 0.00 | 0.00 | 0.00 | 91 | 1012.1 |
| 20260830084203 | 56 | 266 | 0.0 | 1.0 | 0.00 | 0.00 | 0.00 | 91 | 1012.1 |
| 20260830083603 | 56 | 266 | 0.0 | 1.0 | 0.00 | 0.00 | 0.00 | 91 | 1012.2 |
| 20260830083003 | 56 | 0 | 0.0 | 0.0 | 0.00 | 0.00 | 0.00 | 91 | 1012.2 |
| 20260830082403 | 56 | 0 | 0.0 | 0.0 | 0.00 | 0.00 | 0.00 | 91 | 1012.2 |